When you browse on this site, cookies collect data to enhance your experience and personalize the content and advertising you see.
Visit our Privacy Policy to learn more. By continuing to use the site, you agree to this use of cookies and data.
  • In Österreich
  • Länderverzeichnis
  • Für 7 Tage
  • Wassertemperatur
  • Wetterkarte
  • News
  • Widgets
  • user-avatar
    Anmelden

    Stündliche Wetter Suchumi

    Heute, 28 Januar, Dienstag

    Zeit Temperatur Niederschläge Wind Luftdruck Luftfeuchtigkeit
    00:00 +8°C° 0 mm 2 m/S 757 mmHg 50%
    01:00 +8°C° 0 mm 2 m/S 757 mmHg 49%
    02:00 +8°C° 0 mm 2 m/S 757 mmHg 49%
    03:00 +8°C° 0 mm 2 m/S 756 mmHg 49%
    04:00 +8°C° 0 mm 2 m/S 756 mmHg 49%
    05:00 +8°C° 0 mm 2 m/S 756 mmHg 48%
    06:00 +8°C° 0 mm 3 m/S 755 mmHg 48%
    07:00 +8°C° 0 mm 3 m/S 755 mmHg 48%
    08:00 +9°C° 0 mm 3 m/S 755 mmHg 47%
    09:00 +9°C° 0 mm 3 m/S 755 mmHg 47%
    10:00 +12°C° 0 mm 2 m/S 755 mmHg 46%
    11:00 +13°C° 0 mm 2 m/S 754 mmHg 46%
    12:00 +15°C° 0 mm 2 m/S 754 mmHg 46%
    13:00 +15°C° 0 mm 2 m/S 753 mmHg 48%
    14:00 +15°C° 0 mm 2 m/S 752 mmHg 50%
    15:00 +15°C° 0 mm 2 m/S 752 mmHg 53%
    16:00 +14°C° 0 mm 2 m/S 752 mmHg 55%
    17:00 +13°C° 0 mm 2 m/S 752 mmHg 57%
    18:00 +10°C° 0 mm 2 m/S 752 mmHg 60%
    19:00 +12°C° 0 mm 2 m/S 752 mmHg 61%
    20:00 +12°C° 0 mm 2 m/S 752 mmHg 62%
    21:00 +12°C° 0 mm 1 m/S 752 mmHg 64%
    22:00 +12°C° 0.1 mm 1 m/S 752 mmHg 68%
    23:00 +10°C° 0.1 mm 2 m/S 752 mmHg 72%

    Morgen, 29 Januar, Mittwoch

    Zeit Temperatur Niederschläge Wind Luftdruck Luftfeuchtigkeit
    00:00 +10°C° 0.1 mm 2 m/S 752 mmHg 76%
    01:00 +10°C° 0.3 mm 2 m/S 752 mmHg 79%
    02:00 +9°C° 0.3 mm 2 m/S 752 mmHg 82%
    03:00 +9°C° 0.3 mm 2 m/S 752 mmHg 85%
    04:00 +9°C° 0.8 mm 2 m/S 752 mmHg 87%
    05:00 +9°C° 0.8 mm 2 m/S 752 mmHg 89%
    06:00 +9°C° 0.8 mm 2 m/S 752 mmHg 90%
    07:00 +9°C° 1 mm 2 m/S 753 mmHg 91%
    08:00 +9°C° 1 mm 2 m/S 753 mmHg 91%
    09:00 +9°C° 1 mm 2 m/S 753 mmHg 91%
    10:00 +9°C° 0.7 mm 2 m/S 753 mmHg 91%
    11:00 +9°C° 0.7 mm 2 m/S 753 mmHg 92%
    12:00 +9°C° 0.7 mm 2 m/S 753 mmHg 92%
    13:00 +9°C° 0.5 mm 2 m/S 752 mmHg 93%
    14:00 +9°C° 0.5 mm 2 m/S 752 mmHg 93%
    15:00 +9°C° 0.5 mm 2 m/S 752 mmHg 93%
    16:00 +9°C° 0.2 mm 2 m/S 752 mmHg 93%
    17:00 +9°C° 0.2 mm 2 m/S 752 mmHg 92%
    18:00 +9°C° 0.2 mm 2 m/S 752 mmHg 92%
    19:00 +8°C° 0.1 mm 2 m/S 752 mmHg 90%
    20:00 +8°C° 0.1 mm 2 m/S 752 mmHg 89%
    21:00 +8°C° 0.1 mm 2 m/S 752 mmHg 88%
    22:00 +8°C° 0 mm 2 m/S 752 mmHg 85%
    23:00 +8°C° 0 mm 2 m/S 752 mmHg 82%

    übermorgen, 30 Januar, Donnerstag

    Zeit Temperatur Niederschläge Wind Luftdruck Luftfeuchtigkeit
    00:00 +8°C° 0 mm 2 m/S 752 mmHg 80%
    01:00 +8°C° 0 mm 2 m/S 752 mmHg 78%
    02:00 +8°C° 0 mm 3 m/S 752 mmHg 77%
    03:00 +8°C° 0 mm 3 m/S 751 mmHg 75%
    04:00 +8°C° 0.1 mm 2 m/S 751 mmHg 77%
    05:00 +8°C° 0.1 mm 2 m/S 751 mmHg 79%
    06:00 +8°C° 0.1 mm 2 m/S 751 mmHg 81%
    07:00 +8°C° 0.8 mm 3 m/S 752 mmHg 84%
    08:00 +8°C° 0.8 mm 3 m/S 752 mmHg 87%
    09:00 +7°C° 0.8 mm 4 m/S 752 mmHg 90%
    10:00 +7°C° 1.5 mm 4 m/S 752 mmHg 91%
    11:00 +7°C° 1.5 mm 4 m/S 752 mmHg 92%
    12:00 +7°C° 1.5 mm 4 m/S 752 mmHg 93%
    13:00 +7°C° 1.4 mm 4 m/S 751 mmHg 92%
    14:00 +7°C° 1.4 mm 4 m/S 751 mmHg 91%
    15:00 +7°C° 1.4 mm 4 m/S 750 mmHg 90%
    16:00 +7°C° 0.7 mm 4 m/S 750 mmHg 89%
    17:00 +7°C° 0.7 mm 4 m/S 750 mmHg 88%
    18:00 +7°C° 0.7 mm 5 m/S 749 mmHg 88%
    19:00 +7°C° 1 mm 4 m/S 749 mmHg 89%
    20:00 +7°C° 1 mm 4 m/S 749 mmHg 90%
    21:00 +8°C° 1 mm 3 m/S 749 mmHg 91%
    22:00 +7°C° 1.5 mm 3 m/S 749 mmHg 92%
    23:00 +7°C° 1.5 mm 3 m/S 750 mmHg 93%

    31 Januar, Freitag

    Zeit Temperatur Niederschläge Wind Luftdruck Luftfeuchtigkeit
    00:00 +7°C° 1.5 mm 2 m/S 750 mmHg 94%
    01:00 +7°C° 2.5 mm 2 m/S 750 mmHg 95%
    02:00 +7°C° 2.5 mm 2 m/S 750 mmHg 96%
    03:00 +7°C° 2.5 mm 2 m/S 750 mmHg 96%
    04:00 +5°C° 2.1 mm 3 m/S 750 mmHg 96%
    05:00 +5°C° 2.1 mm 3 m/S 751 mmHg 96%
    06:00 +5°C° 2.1 mm 3 m/S 751 mmHg 96%
    07:00 +5°C° 1.1 mm 3 m/S 752 mmHg 96%
    08:00 +5°C° 1.1 mm 3 m/S 752 mmHg 95%
    09:00 +5°C° 1.1 mm 3 m/S 752 mmHg 95%
    10:00 +5°C° 0.7 mm 3 m/S 752 mmHg 94%
    11:00 +5°C° 0.7 mm 3 m/S 752 mmHg 94%
    12:00 +6°C° 0.7 mm 2 m/S 752 mmHg 93%
    13:00 +6°C° 0.4 mm 2 m/S 752 mmHg 92%
    14:00 +5°C° 0.4 mm 3 m/S 752 mmHg 92%
    15:00 +5°C° 0.4 mm 3 m/S 752 mmHg 91%
    16:00 +4°C° 0.2 mm 3 m/S 753 mmHg 91%
    17:00 +4°C° 0.2 mm 3 m/S 753 mmHg 91%
    18:00 +4°C° 0.2 mm 3 m/S 754 mmHg 91%
    19:00 +3°C° 0.1 mm 3 m/S 754 mmHg 89%
    20:00 +3°C° 0.1 mm 3 m/S 754 mmHg 88%
    21:00 +3°C° 0.1 mm 2 m/S 755 mmHg 87%
    22:00 +3°C° 0 mm 2 m/S 755 mmHg 85%
    23:00 +3°C° 0 mm 2 m/S 755 mmHg 84%

    1 Februar, Samstag

    Zeit Temperatur Niederschläge Wind Luftdruck Luftfeuchtigkeit
    00:00 +2°C° 0 mm 2 m/S 754 mmHg 83%
    01:00 +2°C° 0 mm 2 m/S 754 mmHg 81%
    02:00 +2°C° 0 mm 2 m/S 754 mmHg 79%
    03:00 +1°C° 0 mm 2 m/S 754 mmHg 78%
    04:00 +1°C° 0 mm 2 m/S 754 mmHg 76%
    05:00 +1°C° 0 mm 2 m/S 754 mmHg 74%
    06:00 +1°C° 0 mm 2 m/S 754 mmHg 73%
    07:00 +1°C° 0 mm 2 m/S 754 mmHg 72%
    08:00 +2°C° 0 mm 2 m/S 754 mmHg 72%
    09:00 +2°C° 0 mm 2 m/S 754 mmHg 72%
    10:00 +4°C° 0 mm 2 m/S 754 mmHg 71%
    11:00 +6°C° 0 mm 1 m/S 754 mmHg 70%
    12:00 +7°C° 0 mm 1 m/S 753 mmHg 69%
    13:00 +7°C° 0 mm 1 m/S 753 mmHg 71%
    14:00 +7°C° 0 mm 1 m/S 753 mmHg 73%
    15:00 +7°C° 0 mm 1 m/S 753 mmHg 75%
    16:00 +6°C° 0 mm 1 m/S 754 mmHg 78%
    17:00 +5°C° 0 mm 1 m/S 755 mmHg 82%
    18:00 +3°C° 0 mm 0 m/S 755 mmHg 86%
    19:00 +3°C° 0 mm 1 m/S 756 mmHg 83%
    20:00 +3°C° 0 mm 1 m/S 756 mmHg 80%
    21:00 +1°C° 0 mm 2 m/S 757 mmHg 76%
    22:00 +1°C° 0 mm 2 m/S 757 mmHg 73%
    23:00 +1°C° 0 mm 2 m/S 757 mmHg 70%

    2 Februar, Sonntag

    Zeit Temperatur Niederschläge Wind Luftdruck Luftfeuchtigkeit
    00:00 0°C° 0 mm 3 m/S 757 mmHg 67%
    01:00 0°C° 0 mm 3 m/S 757 mmHg 67%
    02:00 0°C° 0 mm 3 m/S 757 mmHg 67%
    03:00 0°C° 0 mm 3 m/S 758 mmHg 67%
    04:00 0°C° 0 mm 3 m/S 758 mmHg 70%
    05:00 +1°C° 0 mm 3 m/S 758 mmHg 72%
    06:00 +1°C° 0 mm 3 m/S 758 mmHg 75%
    07:00 +2°C° 0.1 mm 3 m/S 758 mmHg 76%
    08:00 +2°C° 0.1 mm 3 m/S 758 mmHg 77%
    09:00 +3°C° 0.1 mm 3 m/S 758 mmHg 78%
    10:00 +5°C° 0.2 mm 2 m/S 758 mmHg 78%
    11:00 +6°C° 0.2 mm 2 m/S 758 mmHg 77%
    12:00 +7°C° 0.2 mm 2 m/S 757 mmHg 77%
    13:00 +7°C° 0.1 mm 2 m/S 757 mmHg 79%
    14:00 +7°C° 0.1 mm 2 m/S 757 mmHg 80%
    15:00 +7°C° 0.1 mm 2 m/S 756 mmHg 81%
    16:00 +6°C° 0.1 mm 2 m/S 756 mmHg 84%
    17:00 +6°C° 0.1 mm 2 m/S 757 mmHg 86%
    18:00 +5°C° 0.1 mm 2 m/S 757 mmHg 89%
    19:00 +5°C° 0 mm 2 m/S 757 mmHg 87%
    20:00 +5°C° 0 mm 2 m/S 756 mmHg 85%
    21:00 +4°C° 0 mm 3 m/S 756 mmHg 84%
    22:00 +4°C° 0.1 mm 3 m/S 756 mmHg 83%
    23:00 +4°C° 0.1 mm 3 m/S 755 mmHg 83%
    Mehr zeigen